PST,Max TemperatureF,Mean TemperatureF,Min TemperatureF,Max Dew PointF,MeanDew PointF,Min DewpointF,Max Humidity, Mean Humidity, Min Humidity, Max Sea Level PressureIn, Mean Sea Level PressureIn, Min Sea Level PressureIn, Max VisibilityMiles, Mean VisibilityMiles, Min VisibilityMiles, Max Wind SpeedMPH, Mean Wind SpeedMPH, Max Gust SpeedMPH,PrecipitationIn, CloudCover, Events, WindDirDegrees
2013-11-1,83,60,37,40,33,25,76,44,12,30.17,30.08,29.99,10,10,10,12,2,,0.00,0,,82
2013-11-2,83,60,37,45,34,26,70,42,13,30.04,29.95,29.86,10,10,10,17,4,21,0.00,0,,268
2013-11-3,72,56,39,46,36,23,89,54,19,30.00,29.93,29.85,10,10,10,13,3,,0.00,1,,349
2013-11-4,67,53,39,30,26,24,64,43,22,30.06,29.94,29.87,10,10,10,12,2,18,0.00,0,,298
2013-11-5,72,52,31,28,24,22,64,40,15,30.23,30.15,30.06,10,10,10,13,4,18,0.00,0,,104
2013-11-6,80,57,34,27,23,18,59,35,10,30.27,30.20,30.14,10,10,10,12,3,15,0.00,0,,108
2013-11-7,81,61,40,30,24,20,45,28,10,30.18,30.11,30.03,10,10,10,12,2,,0.00,0,,323
2013-11-8,81,58,34,29,26,22,59,36,13,30.08,30.01,29.92,10,10,10,14,3,,0.00,0,,103
2013-11-9,77,56,34,47,34,24,83,51,18,30.06,30.02,29.97,10,10,10,13,3,16,0.00,0,,179
2013-11-10,74,55,36,45,38,31,85,53,20,30.12,30.08,30.04,10,10,10,18,3,,0.00,0,,170
2013-11-11,80,57,33,43,35,26,89,52,15,30.17,30.12,30.04,10,10,10,9,3,,0.00,0,,195
2013-11-12,75,61,46,45,39,35,61,44,27,30.26,30.19,30.13,10,10,10,10,4,13,T,1,Rain,330
2013-11-13,80,60,39,40,35,32,76,49,21,30.23,30.15,30.07,10,10,9,8,2,,0.00,0,,81
2013-11-14,78,58,37,46,39,29,77,51,25,30.09,29.97,29.86,10,10,10,21,6,26,0.00,0,,319
2013-11-15,67,55,42,44,41,35,92,63,34,29.85,29.78,29.70,10,10,10,15,6,,0.00,0,,312
2013-11-16,67,50,33,44,38,30,86,59,32,29.95,29.86,29.80,10,10,10,14,4,17,0.00,0,,277
2013-11-17,65,52,39,44,40,34,96,70,44,30.10,30.02,29.96,10,6,0,10,1,23,0.00,3,Fog,98
2013-11-18,66,51,36,45,38,30,85,64,42,30.17,30.11,30.05,10,10,10,13,3,16,0.00,0,,204
2013-11-19,64,50,35,46,40,31,89,67,44,30.13,30.07,29.97,10,9,1,9,2,17,0.00,3,,211
2013-11-20,63,57,51,57,52,45,93,83,72,29.97,29.90,29.85,10,9,2,9,3,15,0.25,8,Rain,216
2013-11-21,63,56,48,54,48,39,93,77,60,29.93,29.88,29.83,10,10,10,14,7,17,0.01,7,Rain,331
2013-11-22,61,52,42,43,40,37,92,69,46,30.01,29.95,29.92,10,10,10,17,4,22,0.01,4,Rain,90
2013-11-23,65,50,35,42,38,34,85,63,40,30.12,30.04,29.98,10,10,10,12,1,22,0.00,0,,146
2013-11-24,67,50,33,39,36,31,92,61,29,30.25,30.18,30.12,10,10,10,10,2,14,0.00,0,,37
2013-11-25,69,51,33,41,37,30,89,61,32,30.32,30.27,30.22,10,9,6,14,4,,0.00,0,,83
2013-11-26,69,52,34,42,38,32,96,68,40,30.25,30.16,30.06,10,7,2,10,3,,0.00,0,,116
2013-11-27,73,55,37,43,38,33,92,58,23,30.04,29.92,29.83,10,8,2,16,4,60,0.00,0,,188
2013-11-28,69,54,39,43,39,34,86,58,29,30.07,29.94,29.87,10,10,10,13,2,,0.00,2,,97
2013-11-29,69,55,41,41,38,33,83,58,32,30.23,30.15,30.07,10,10,10,8,1,14,0.00,4,,73
2013-11-30,73,54,34,37,34,30,89,57,25,30.29,30.23,30.15,10,10,10,10,1,,0.00,0,,54